Flag Weather past 2 weeks in Pasadena, California, U.S.A.

Now
66 °F

Sunny.


Feels Like: 66 °F
Forecast: 59 / 85 °F
Wind: No wind

Location: Burbank-Glendale-Pasadena Airport

Current Time: Nov 27, 2014 at 9:34:18 AM

Latest Report: Nov 27, 2014 at 8:53 AM


Visibility: 10 mi

Pressure: 30.11 "Hg

Humidity: 25%

Dew point: 29 °F

Location of PasadenaLocation

Historic Weather in Pasadena — Graph

°F

Pasadena temperature yesterday

Maximum temperature yesterday: 85 °F (at 1:53 PM)
Minimum temperature yesterday: 49 °F (at 5:53 AM)
Average temperature yesterday: 66 °F

Past Weeks' High & Low Weather Summary

 TemperatureHumidityPressure
High85 °F (Nov 26, 1:53 PM)90% (Nov 21, 4:53 AM)30.38 "Hg (Nov 21, 4:53 AM)
Low48 °F (Nov 20, 5:53 AM)2% (Nov 16, 12:53 PM)29.89 "Hg (Nov 21, 1:53 PM)
Average62 °F41%30.07 "Hg
* Reported Nov 12 7:53 AM — Nov 27 7:53 AM, Pasadena, Weather by CustomWeather, © 2014

Note: Actual official high and low records may vary slightly from our data, if they occured in-between our weather recording intervals... More about our weather records

Advertising

Pasadena weather history for previous 24 hours

 ConditionsComfort  
Time TempWeatherWind HumidityBarometerVisibility
7:53 AM
Nov 27
61 °FSunny.No wind22%30.10 "Hg10 mi
6:53 AM54 °FSunny.3 mph23%30.10 "Hg10 mi
5:53 AM52 °FClear.No wind28%30.09 "Hg10 mi
4:53 AM55 °FClear.8 mph22%30.07 "Hg10 mi
3:53 AM57 °FClear.No wind22%30.06 "Hg10 mi
2:53 AM54 °FClear.No wind29%30.08 "Hg10 mi
1:53 AM57 °FClear.No wind31%30.09 "Hg10 mi
12:53 AM59 °FClear.No wind23%30.10 "Hg10 mi
11:53 PM
Nov 26
59 °FClear.No wind27%30.11 "Hg10 mi
10:53 PM59 °FClear.No wind31%30.12 "Hg10 mi
9:53 PM61 °FClear.No wind26%30.12 "Hg10 mi
8:53 PM65 °FClear.No wind22%30.13 "Hg10 mi
7:53 PM67 °FClear.No wind20%30.12 "Hg10 mi
6:53 PM69 °FClear.3 mph21%30.12 "Hg10 mi
5:53 PM72 °FClear.5 mph21%30.11 "Hg10 mi
4:53 PM80 °FClear.No wind13%30.11 "Hg10 mi
3:53 PM84 °FSunny.6 mph11%30.10 "Hg10 mi
2:53 PM85 °FSunny.No wind10%30.11 "Hg10 mi
1:53 PM85 °FSunny.5 mph9%30.11 "Hg10 mi
12:53 PM83 °FSunny.6 mph9%30.13 "Hg10 mi
11:53 AM81 °FSunny.No wind9%30.16 "Hg10 mi
10:53 AM77 °FSunny.No wind10%30.19 "Hg10 mi
9:53 AM71 °FSunny.No wind18%30.22 "Hg10 mi
Weather by CustomWeather, © 2014

See weather overviewHow to use our weather pages